Flag for Norway Weather past 2 weeks in Knarrevik/Straume, Norway

Now
48 °F

Scattered clouds.


Feels Like: 48 °F
Forecast: 38 / 54 °F
Wind: 2 mph from Southwest

Location: Bergen / Flesland


UV Index: 0 (Low)

Visibility: 31 mi


Pressure: 30.28 "Hg

Humidity: 68%

Dew point: 38 °F

Location of Knarrevik/StraumeLocation

Historic Weather in Knarrevik/Straume

°F

Knarrevik/Straume temperature yesterday

Maximum temperature yesterday: 49 °F (at 4:00 PM)
Minimum temperature yesterday: 39 °F (at 5:00 AM)
Average temperature yesterday: 44 °F

Past Weeks' High & Low Weather Summary

 TemperatureHumidityPressure
High54 °F (Apr 7, 5:00 PM)98% (Apr 6, 9:00 PM)30.38 "Hg (Apr 6, 9:00 PM)
Low35 °F (Apr 5, 5:00 AM)50% (Apr 19, 11:00 AM)29.35 "Hg (Apr 13, 1:00 AM)
Average44 °F82%29.85 "Hg
* Reported Apr 4 7:00 PM — Apr 19 7:00 PM, Knarrevik/Straume, Weather by CustomWeather, © 2014

Note: Actual official high and low records may vary slightly from our data, if they occured in-between our weather recording intervals... More about our weather records

Advertising

Historic Weather Conditions — Data for Previous 24 hours

 ConditionsComfort  
Time TempWeatherWind HumidityBarometerVisibility
7:00 PM
Apr 19
48 °FScattered clouds.2 mph68%30.28 "Hg31 mi
6:00 PM50 °FSunny.2 mph62%30.29 "Hg15 mi
5:00 PM51 °FSunny.5 mph56%30.29 "Hg22 mi
4:00 PM53 °FRain showers. Sunny.5 mph56%30.30 "Hg14 mi
3:00 PM51 °FSunny.6 mph56%30.31 "Hg16 mi
2:00 PM52 °FRain showers. Partly sunny.6 mph54%30.31 "Hg13 mi
1:00 PM52 °FRain showers. Partly sunny.6 mph52%30.31 "Hg11 mi
12:00 PM51 °FSunny.7 mph52%30.31 "Hg9 mi
11:00 AM51 °FSunny.7 mph50%30.30 "Hg16 mi
10:00 AM49 °FSunny.3 mph53%30.29 "Hg19 mi
9:00 AM47 °FSunny.3 mph55%30.28 "Hg28 mi
8:00 AM45 °FSunny.3 mph60%30.27 "Hg31 mi
7:00 AM43 °FSunny.5 mph67%30.26 "Hg31 mi
6:00 AM41 °FClear.5 mph69%30.24 "Hg31 mi
5:00 AM40 °FClear.5 mph75%30.24 "Hg31 mi
4:00 AM37 °FClear.1 mph95%30.23 "Hg14 mi
3:00 AM36 °FPassing clouds.2 mph94%30.23 "Hg17 mi
2:00 AM36 °FClear.2 mph93%30.21 "Hg19 mi
1:00 AM37 °FClear.1 mph90%30.20 "Hg16 mi
12:00 AM38 °FClear.1 mph86%30.19 "Hg16 mi
10:00 PM
Apr 18
41 °FClear.5 mph80%30.18 "Hg14 mi
9:00 PM43 °FPassing clouds.5 mph68%30.16 "Hg22 mi
8:00 PM45 °FSunny.3 mph60%30.14 "Hg28 mi
Weather by CustomWeather, © 2014

See weather overview